West Lebanon, NH

5:52 AM EST on February 27, 2017 (GMT -0500)
Lebanon Municipal

Weather History for KLEB - June, 2013

Change the Weather History Date:

Sunday, June 16, 2013

  Actual Average Record
Temperature  
Mean Temperature 59 °F -  
Max Temperature 73 °F 78 °F 93 °F (1983)
Min Temperature 46 °F 54 °F 37 °F (1961)
Degree Days  
Heating Degree Days 6    
Growing Degree Days 9 (Base 50)    
Moisture  
Dew Point 54 °F    
Average Humidity 83    
Maximum Humidity 100    
Minimum Humidity 51    
Precipitation  
Precipitation 0.03 in - - ()
Sea Level Pressure  
Sea Level Pressure 29.80 in    
Wind  
Wind Speed 3 mph (SSW)    
Max Wind Speed 13 mph    
Max Gust Speed -    
Visibility 8 miles    
Events Rain    
Averages and records for this station are not official NWS values.
T = Trace of Precipitation, MM = Missing Value Source: NWS Daily Summary

Daily Weather History Graph

Daily Weather History Graph

Search for Another Location

Airport or City:

Trip Planner

Search our weather history database for the weather conditions in past years. The results will help you decide how hot, cold, wet, or windy it might be!

Date:

Astronomy

Jun. 16, 2013 Rise Set
Actual Time 5:07 AM EDT 8:32 PM EDT
Civil Twilight 4:31 AM EDT 9:08 PM EDT
Nautical Twilight 3:44 AM EDT 9:55 PM EDT
Astronomical Twilight 2:44 AM EDT 10:55 PM EDT
Moon 12:53 PM EDT (6/16) 12:23 AM EDT (6/16)
Length of Visible Light 16h 37m
Length of Day
15h 25m
Waxing Crescent, 49% of the Moon is Illuminated
Jun 16
Waxing Crescent
Jun 16
First Quarter
Jun 23
Full
Jun 30
Last Quarter
Jul 8
New

Hourly Weather History & Observations

Time (EDT) Temp. Dew Point Humidity Pressure Visibility Wind Dir Wind Speed Gust Speed Precip Events Conditions
12:53 AM 48.9 °F 46.9 °F 93% 29.92 in 10.0 mi Calm Calm - N/A   Clear
1:53 AM 48.0 °F 46.0 °F 93% 29.92 in 10.0 mi Calm Calm - N/A   Clear
2:53 AM 46.9 °F 45.0 °F 93% 29.92 in 10.0 mi SSE 3.5 mph - N/A   Clear
3:53 AM 48.0 °F 46.0 °F 93% 29.91 in 10.0 mi Calm Calm - N/A   Clear
4:53 AM 46.9 °F 45.0 °F 93% 29.91 in 9.0 mi Calm Calm - N/A   Clear
5:53 AM 46.0 °F 45.0 °F 96% 29.91 in 8.0 mi Calm Calm - N/A   Clear
6:53 AM 52.0 °F 48.9 °F 89% 29.91 in 10.0 mi Calm Calm - N/A   Clear
7:53 AM 57.0 °F 51.1 °F 81% 29.90 in 10.0 mi Calm Calm - N/A   Clear
8:53 AM 61.0 °F 51.1 °F 70% 29.89 in 10.0 mi West 4.6 mph - N/A   Overcast
9:53 AM 64.0 °F 48.9 °F 58% 29.87 in 10.0 mi SSW 8.1 mph - N/A   Mostly Cloudy
10:53 AM 66.0 °F 48.9 °F 54% 29.85 in 10.0 mi South 5.8 mph - N/A   Overcast
11:53 AM 71.1 °F 52.0 °F 51% 29.81 in 10.0 mi SSW 11.5 mph - N/A   Mostly Cloudy
12:53 PM 72.0 °F 54.0 °F 53% 29.78 in 10.0 mi South 12.7 mph - N/A   Mostly Cloudy
1:53 PM 72.0 °F 55.9 °F 57% 29.74 in 10.0 mi South 8.1 mph - N/A   Scattered Clouds
2:53 PM 70.0 °F 55.0 °F 59% 29.72 in 10.0 mi SSW 6.9 mph - N/A   Mostly Cloudy
3:53 PM 69.1 °F 57.0 °F 65% 29.72 in 9.0 mi SW 5.8 mph - 0.00 in Rain Light Rain
4:53 PM 64.0 °F 59.0 °F 84% 29.72 in 6.0 mi South 12.7 mph - 0.01 in Rain Light Rain
5:53 PM 62.1 °F 60.1 °F 93% 29.71 in 7.0 mi Calm Calm - 0.02 in   Overcast
6:53 PM 63.0 °F 61.0 °F 93% 29.70 in 6.0 mi Calm Calm - N/A   Overcast
7:18 PM 62.6 °F 60.8 °F 94% 29.71 in 6.0 mi Calm Calm - N/A   Overcast
7:53 PM 63.0 °F 61.0 °F 93% 29.70 in 7.0 mi Calm Calm - N/A   Overcast
8:05 PM 62.6 °F 60.8 °F 94% 29.72 in 8.0 mi SW 3.5 mph - N/A   Overcast
8:28 PM 62.6 °F 60.8 °F 94% 29.73 in 6.0 mi Calm Calm - N/A   Overcast
8:53 PM 62.1 °F 60.1 °F 93% 29.72 in 9.0 mi Calm Calm - N/A   Overcast
9:53 PM 60.1 °F 57.9 °F 93% 29.74 in 7.0 mi South 3.5 mph - N/A   Mostly Cloudy
10:53 PM 57.9 °F 57.0 °F 97% 29.76 in 7.0 mi South 3.5 mph - N/A   Partly Cloudy
11:36 PM 55.4 °F 53.6 °F 94% 29.78 in 2.5 mi South 4.6 mph - N/A   Partly Cloudy
11:43 PM 53.6 °F 53.6 °F 100% 29.78 in 4.0 mi Calm Calm - N/A   Scattered Clouds
11:53 PM 55.9 °F 54.0 °F 93% 29.77 in 4.0 mi Calm Calm - N/A   Mostly Cloudy